EDISTO NM Southeast of Charleston, SC (41004)

Conditions for Monday

Daily
Weekly
Monthly
Marine Data Graph

Marine & Boating Location Search

Enter a coastal zip code for marine weather.

General Information

Location: 32.501 North -79.099 West
Buoy Type: 3-meter discus buoy
Buoy Hull: 3D58
Payload: ARES payload
Owned by: NDBC
Windspeed: Measured by obtained from anemometer
Sea Surface: Measured by Intake
Note:
Right whales are active off SC from November to April. Speed restrictions of 10 knots apply to vessels 65 feet or greater in specific areas and times along the U.S. East Coast. It is illegal to approach right whales within 500 yards. To learn more about right whales and rules protecting them, go to: http://www.nmfs.noaa.gov/pr/shipstrike.

Weather and Wave Data

Time Temp Humidity Wind Dominant Wave Wind Wave Wave Swell Pressure
  Air
(°F)
Water
(°F)
  Dir Speed
(kts)
Speed
(mph)
Period
(sec)
Height
(ft)
Range
(ft)
Period
(sec)
Height
(ft)
Range
(ft)
Period
(sec)
Height
(ft)
Range
(ft)
Atmo.
(in)
Tend.
(in)
20:10 79 83 80 NNE 19.4 22.4 - - - - - - 29.98 -
20:20 79 83 79 NNE 21.4 24.6 - - - - - - 29.99 -
20:30 78 83 82 NNE 21.4 24.6 - - - - - - 29.99 -
20:40 78
-
82 NNE 21.4 24.6 - - - - - - 29.99 -
20:50 78 83 82 NNE 21.4 24.6 6 5.58 exactly 5.6 6 4.92 4.10 - 5.74 9 1.64 0.82 - 2.46 29.99 -
21:00 78 83 82 NNE 19.4 22.4 - - - - - - 30.00 +0.03
21:10 78
-
82 NNE 19.4 22.4 - - - - - - 30.00 -
21:30 78
-
82 North 19.4 22.4 - - - - - - 30.00 -
21:40 79 83 78 North 19.4 22.4 - - - - - - 30.00 -
21:50 79 83 78 NNE 19.4 22.4 6 5.91 exactly 5.9 6 6.56 5.74 - 7.38 - - - 30.01 -
22:20 79 83 76 NNE 19.4 22.4 - - - - - - 30.02 -
22:30 79 83 76 North 19.4 22.4 - - - - - - 30.01 -
22:40 78 83 77 NNE 21.4 24.6 - - - - - - 30.02 -
22:50 78 83 77 North 19.4 22.4 6 5.91 exactly 5.9 6 6.56 5.74 - 7.38 - - - 30.02 -
23:00 78
-
77 North 19.4 22.4 - - - - - - 30.02 +0.04
23:20 78 83 75 North 19.4 22.4 - - - - - - 30.01 -
23:30 78 83 75 North 19.4 22.4 - - - - - - 30.01 -
23:40 78 83 74 NNE 19.4 22.4 - - - - - - 30.01 -
23:50 78 83 74 NNE 19.4 22.4 7 5.91 exactly 5.9 7 4.92 4.10 - 5.74 9 1.64 0.82 - 2.46 30.01 -
00:20 78 83 73 North 19.4 22.4 - - - - - - 30.01 -
00:30 78 83 73 North 19.4 22.4 - - - - - - 30.01 -
00:40 78 83 75 North 17.5 20.1 - - - - - - 30.00 -
00:50 78 83 74 North 17.5 20.1 6 6.23 exactly 6.2 6 6.56 5.74 - 7.38 - - - 30.01 -
01:20 78 83 74 North 17.5 20.1 - - - - - - 30.00 -
02:20 78 83 77 NNE 17.5 20.1 - - - - - - 29.98 -
02:30 78 83 79 NNE 17.5 20.1 - - - - - - 29.97 -
02:40 78 83 78 NNE 17.5 20.1 - - - - - - 29.97 -
02:50 78 83 80 NNE 17.5 20.1 6 5.25 exactly 5.2 6 4.92 4.10 - 5.74 8 1.64 0.82 - 2.46 29.97 -
03:10 78 83 80 NNE 17.5 20.1 - - - - - - 29.96 -
03:40 78 83 81 NNE 15.6 17.9 - - - - - - 29.96 -
03:50 78 83 82 NNE 15.6 17.9 6 5.25 exactly 5.2 6 4.92 4.10 - 5.74 9 1.64 0.82 - 2.46 29.96 -
04:10 79 83 78 NNE 17.5 20.1 - - - - - - 29.96 -
04:20 79 83 79 NNE 15.6 17.9 - - - - - - 29.96 -
04:30 79 84 79 NNE 15.6 17.9 - - - - - - 29.96 -
05:10 79 83 80 NNE 17.5 20.1 - - - - - - 29.96 -
05:30 79 83 81 NNE 17.5 20.1 - - - - - - 29.96 -
05:40 79 83 81 NNE 17.5 20.1 - - - - - - 29.96 -
06:10 79 83 82 NNE 17.5 20.1 - - - - - - 29.96 -
07:30 79 83 85 North 19.4 22.4 - - - - - - 29.98 -
07:40 80 83 82 NNE 19.4 22.4 - - - - - - 29.99 -
07:50 79 83 85 NNE 19.4 22.4 6 5.91 exactly 5.9 6 4.92 4.10 - 5.74 8 3.28 2.46 - 4.10 29.99 -
08:00 79
-
85 NNE 19.4 22.4 - - - - - - 29.99 +0.03
08:10 79 83 86 NNE 19.4 22.4 - - - - - - 29.99 -
08:30 79 83 85 NNE 19.4 22.4 - - - - - - 29.99 -
08:40 79 83 85 NNE 19.4 22.4 - - - - - - 29.99 -
09:20 79 83 85 NNE 19.4 22.4 - - - - - - 30.00 -
09:40 79 83 84 NNE 19.4 22.4 - - - - - - 30.01 -
09:50 79 83 84 NNE 19.4 22.4 6 6.23 exactly 6.2 6 6.56 5.74 - 7.38 - - - 30.01 -
10:00 79 83 84 NNE 19.4 22.4 - - - - - - 30.01 +0.02
10:20 79 83 84 NNE 19.4 22.4 - - - - - - 30.02 -
10:30 79 83 83 NNE 19.4 22.4 - - - - - - 30.02 -
10:40 79 83 84 NNE 19.4 22.4 - - - - - - 30.02 -
10:50 79 83 84 NNE 19.4 22.4 6 6.23 exactly 6.2 6 4.92 4.10 - 5.74 9 1.64 0.82 - 2.46 30.02 -
11:20 79 83 83 NNE 19.4 22.4 - - - - - - 30.03 -
11:30 79 83 83 NNE 19.4 22.4 - - - - - - 30.03 -
11:40 79 83 83 NNE 19.4 22.4 - - - - - - 30.03 -
11:50 79 83 81 NNE 19.4 22.4 6 5.91 exactly 5.9 6 4.92 4.10 - 5.74 9 1.64 0.82 - 2.46 30.02 -
12:20 79 83 81 NNE 19.4 22.4 - - - - - - 30.02 -
12:30 79 83 81 NNE 19.4 22.4 - - - - - - 30.01 -
12:40 79 84 82 NNE 19.4 22.4 - - - - - - 30.01 -
12:50 79 84 81 NNE 19.4 22.4 7 5.91 exactly 5.9 7 4.92 4.10 - 5.74 9 3.28 2.46 - 4.10 30.01 -
13:00 79 84 81 NNE 17.5 20.1 - - - - - - 30.01 -
13:40 80 84 73 NNE 17.5 20.1 - - - - - - 30.02 -
13:50 80 84 72 NNE 19.4 22.4 7 5.91 exactly 5.9 7 4.92 4.10 - 5.74 9 3.28 2.46 - 4.10 30.01 -
14:00 80
-
72 NE 19.4 22.4 - - - - - - 30.01 -0.01
14:10 80 84 71 NE 17.5 20.1 - - - - - - 30.01 -
14:50 79 84 75 NE 13.6 15.7 8 6.23 exactly 6.2 6 4.92 4.10 - 5.74 8 3.28 2.46 - 4.10 30.00 -
15:00 79
-
75 NNE 13.6 15.7 - - - - - - 30.00 -0.03
15:10 80 83 71 NE 15.6 17.9 - - - - - - 29.99 -
15:20 79 83 73 NE 15.6 17.9 - - - - - - 29.99 -
15:30 80 84 70 NE 13.6 15.7 - - - - - - 29.99 -
15:40 80 84 70 NE 13.6 15.7 - - - - - - 29.98 -
15:50 80 84 69 NE 15.6 17.9 6 5.91 exactly 5.9 6 4.92 4.10 - 5.74 10 3.28 2.46 - 4.10 29.98 -
16:10 80 84 68 NE 15.6 17.9 - - - - - - 29.98 -
16:20 80 84 66 NE 15.6 17.9 - - - - - - 29.98 -
16:30 80 84 65 NE 15.6 17.9 - - - - - - 29.97 -
17:10 81 83 63 NE 15.6 17.9 - - - - - - 29.97 -
17:30 81 83 64 NE 15.6 17.9 - - - - - - 29.96 -
17:50 81 83 62 NE 15.6 17.9 8 5.58 exactly 5.6 6 4.92 4.10 - 5.74 8 3.28 2.46 - 4.10 29.96 -
18:10 81 83 62 NE 15.6 17.9 - - - - - - 29.96 -
18:40 81
-
62 NE 13.6 15.7 - - - - - - 29.97 -
18:50 81 83 60 NE 13.6 15.7 8 5.91 exactly 5.9 6 4.92 4.10 - 5.74 8 3.28 2.46 - 4.10 29.96 -
19:10 81 83 57 NE 13.6 15.7 - - - - - - 29.97 -
20:10 81
-
62 NE 13.6 15.7 - - - - - - 29.97 -
20:20 81 83 62 NE 13.6 15.7 - - - - - - 29.97 -
20:30 81 83 61 NE 11.7 13.4 - - - - - - 29.98 -
20:40 81 83 61 NE 11.7 13.4 - - - - - - 29.98 -
20:50 81 83 61 NE 9.7 11.2 7 4.92 exactly 4.9 6 3.28 2.46 - 4.10 7 3.28 2.46 - 4.10 29.99 -
21:10 81 83 60 NE 9.7 11.2 - - - - - - 30.01 -
21:20 81 83 61 NE 9.7 11.2 - - - - - - 30.01 -
21:30 81 83 61 NE 7.8 8.9 - - - - - - 30.01 -
21:40 81 83 61 NE 7.8 8.9 - - - - - - 30.02 -
21:50 81 83 61 NE 7.8 8.9 8 5.25 exactly 5.2 4 1.64 0.82 - 2.46 8 4.92 4.10 - 5.74 30.02 -
22:20 81 83 60 NE 5.8 6.7 - - - - - - 30.03 -
22:30 82 83 58 NE 5.8 6.7 - - - - - - 30.03 -
22:50 82 83 59 NE 5.8 6.7 8 4.59 exactly 4.6 4 1.64 0.82 - 2.46 8 4.92 4.10 - 5.74 30.03 -
23:20 81 83 61 NE 5.8 6.7 - - - - - - 30.03 -
23:40 82 83 59 NE 5.8 6.7 - - - - - - 30.02 -
00:10 82 83 59 NE 5.8 6.7 - - - - - - 30.02 -
00:20 82 83 58 NE 7.8 8.9 - - - - - - 30.02 -
00:30 82 83 58 NE 7.8 8.9 - - - - - - 30.02 -
00:50 82 83 58 NNE 7.8 8.9 6 3.94 exactly 3.9 4 1.64 0.82 - 2.46 6 3.28 2.46 - 4.10 30.01 -
01:00 82 83 56 NNE 7.8 8.9 - - - - - - 30.01 -0.02
01:10 82 84 57 NNE 7.8 8.9 - - - - - - 30.01 -
01:20 82 84 57 NE 7.8 8.9 - - - - - - 30.00 -
01:40 82 84 58 NNE 7.8 8.9 - - - - - - 30.00 -
02:00 81
-
60 NNE 7.8 8.9 - - - - - - 29.99 -0.04
02:20 81 84 63 NNE 9.7 11.2 - - - - - - 29.99 -
02:30 81 84 64 NNE 7.8 8.9 - - - - - - 29.98 -
02:40 81 84 62 NNE 9.7 11.2 - - - - - - 29.98 -
03:00 81 84 62 NNE 9.7 11.2 - - - - - - 29.97 -0.06
03:20 81 84 65 NE 9.7 11.2 - - - - - - 29.96 -
03:30 81 84 62 NE 9.7 11.2 - - - - - - 29.95 -
03:40 81 84 62 NE 9.7 11.2 - - - - - - 29.95 -
03:50 81 84 62 NE 9.7 11.2 10 3.28 exactly 3.3 5 1.64 0.82 - 2.46 10 3.28 2.46 - 4.10 29.94 -

Detailed Wave Spectra

Time Water Depth Wave Height Spectral Peak Period Average Wave Period Sampling Interval Wave Record
22:00 128 ft 5.81 ft 6.3 sec 4.8 sec 0.6 sec 2400 sec
00:00 128 ft 6.00 ft 6.7 sec 4.8 sec 0.6 sec 2400 sec
01:00 128 ft 6.10 ft 6.3 sec 4.9 sec 0.6 sec 2400 sec
02:00 128 ft 5.58 ft 6.7 sec 4.9 sec 0.6 sec 2400 sec
03:00 128 ft 5.25 ft 5.6 sec 4.8 sec 0.6 sec 2400 sec
04:00 128 ft 5.31 ft 5.9 sec 4.8 sec 0.6 sec 2400 sec
05:00 128 ft 5.35 ft 8.3 sec 4.9 sec 0.6 sec 2400 sec
06:00 128 ft 5.22 ft 8.3 sec 4.8 sec 0.6 sec 2400 sec
07:00 128 ft 5.38 ft 7.1 sec 4.8 sec 0.6 sec 2400 sec
09:00 128 ft 6.23 ft 7.1 sec 4.9 sec 0.6 sec 2400 sec
16:00 128 ft 6.04 ft 5.6 sec 5.5 sec 0.6 sec 2400 sec
17:00 128 ft 6.30 ft 8.3 sec 5.6 sec 0.6 sec 2400 sec
18:00 128 ft 5.48 ft 7.7 sec 5.2 sec 0.6 sec 2400 sec
19:00 128 ft 5.87 ft 8.3 sec 5.3 sec 0.6 sec 2400 sec
20:00 128 ft 5.74 ft 6.7 sec 5.2 sec 0.6 sec 2400 sec
22:00 128 ft 5.12 ft 7.7 sec 5.4 sec 0.6 sec 2400 sec
23:00 128 ft 4.66 ft 7.7 sec 5.4 sec 0.6 sec 2400 sec
00:00 128 ft 4.66 ft 7.7 sec 5.5 sec 0.6 sec 2400 sec